User: anonymous   Login
Location: Newsoms
(36.6240°N, 77.1250°W)
Time: 02:15:33
(UTC-04:00)
Language:

BREEZE-M DEB (TANK) - Orbit

View from above orbital plane
View from above orbital plane
View from above satellite
View from above satellite

Ground track
Ground track

The orbit data is extracted from the following two-line orbital elements,

1 29649U 06056B   14302.79448028  .00004212  00000-0  61545-3 0   454
2 29649 049.4644 213.5178 5418058 284.0348 033.4966 04.95200446139895
Epoch (UTC): 29 October 2014 19:04:03
Eccentricity: 0.5418058
inclination: 49.4644°
perigee height: 284 km
apogee height: 16039 km
right ascension of ascending node: 213.5178°
argument of perigee: 284.0348°
revolutions per day: 4.95200446
mean anomaly at epoch: 33.4966°
orbit number at epoch: 13989

The dashed part of the orbit path shows where the satellite is in the earth's shadow,  

DLR